Temp
23 24 25 21 17 16 16 16 16 16 15 15 15 16 15 15 15 14 14 14 14 14
23 23 22 18 16 15 16 15 15 15 15 15 14 14 14 13 13 12 12 11 11 12
23 22 20 17 16 16 15 15 14 14 14 14 13 13 13 12 11 11 11 10 10 10
21 20 17 16 16 15 14 14 14 14 13 13 12 12 12 12 11 10 10 9 9 9
18 17 15 16 15 15 14 14 14 13 13 12 12 11 11 10 10 9 9 9 8 8
15 15 15 15 15 14 14 14 13 13 12 12 11 10 10 9 9 9 8 8 7 7
14 14 14 14 14 14 13 13 12 12 11 11 10 9 9 8 8 7 6 6 6 6
13 13 14 14 14 13 13 12 11 11 10 9 9 9 8 7 7 6 4 4 4 3
13 13 13 13 13 12 11 11 10 10 9 8 8 7 6 6 5 5 4 4 3 2
13 13 13 12 12 11 11 10 10 9 8 7 4 5 5 5 4 3 1 1 0 -1
13 12 12 12 12 11 10 10 9 8 7 4 2 3 3 3 2 1 -0 -0 -1 -0
12 12 12 12 11 11 9 8 7 6 4 2 2 2 2 2 1 1 1 0 0 1
13 12 12 12 10 9 8 7 6 4 3 2 1 1 2 3 3 2 1 1 0 0
12 12 12 10 9 7 7 6 5 4 3 2 1 1 2 3 3 2 1 1 1 -1
Height
711 716 722 729 736 745 751 755 762 767 773 780 786 791 795 798 802 804 807 809 812 814
704 710 715 724 732 739 747 754 761 765 773 777 783 788 792 795 799 803 807 808 810 812
696 705 711 720 728 736 742 749 757 763 770 776 781 785 790 794 797 800 802 805 808 810
693 701 707 715 724 730 739 746 755 762 767 772 778 783 789 794 798 799 801 804 806 808
691 697 703 712 719 727 734 744 751 757 764 771 776 781 786 789 794 797 801 804 807 808
686 693 701 709 717 724 731 741 749 755 762 768 774 780 783 787 792 796 800 803 805 807
683 691 700 707 715 723 730 736 745 751 758 766 772 778 782 785 791 794 798 801 804 807
682 690 697 704 712 720 727 734 742 749 756 764 770 775 781 784 788 794 797 800 802 804
682 689 694 702 710 720 727 734 741 748 753 760 768 772 777 780 786 792 795 798 801 802
677 683 692 700 708 717 724 731 739 745 751 760 764 770 772 779 785 789 792 796 798 801
675 682 690 698 705 714 721 728 735 743 750 759 762 765 771 778 782 787 792 795 797 800
672 678 686 695 702 711 719 726 733 741 748 756 758 764 772 778 784 789 792 796 797 799
668 675 682 691 700 708 716 723 733 740 746 752 756 763 771 777 782 787 791 795 795 795
667 675 681 689 698 706 715 724 733 734 746 751 757 762 768 774 779 784 787 791 794 796
Wind_Speed
35 32 28 30 31 30 30 32 33 28 25 22 18 15 14 13 10 9 8 7 5 5
35 33 28 31 33 31 30 32 29 28 25 22 20 18 16 14 12 10 9 8 7 6
34 31 32 33 34 32 31 33 32 27 25 23 21 18 15 14 14 13 10 9 8 8
30 30 34 36 34 36 34 32 28 28 26 23 21 18 15 13 12 11 10 10 10 8
31 34 34 34 36 36 34 32 32 29 25 23 20 18 17 15 13 12 11 10 10 8
31 32 34 35 36 36 36 33 30 27 25 23 20 18 16 15 14 13 11 11 10 9
34 35 37 36 36 35 35 34 31 28 25 23 21 17 16 16 15 14 12 11 10 8
35 37 37 37 35 34 33 32 30 29 25 22 19 17 18 17 16 14 13 11 10 9
35 36 36 35 35 33 32 31 30 27 25 22 17 21 22 19 17 15 14 14 11 8
37 37 36 37 36 34 32 31 29 26 23 20 18 27 25 21 19 17 16 16 13 9
34 35 35 35 34 33 32 30 28 26 22 20 21 26 26 24 18 16 14 12 10 8
37 37 36 35 34 33 32 29 28 26 25 20 23 23 25 19 15 13 12 10 10 8
35 38 37 36 35 32 30 30 27 26 22 20 24 25 26 19 15 15 12 10 9 12
35 36 36 36 34 32 31 29 27 27 23 22 22 28 27 21 15 15 13 11 9 9
Wind_Direction
199 199 193 177 173 178 175 172 166 161 158 154 154 158 156 153 151 144 141 148 155 158
196 195 177 170 171 174 165 161 157 152 151 154 157 157 153 152 147 146 146 144 143 149
191 191 168 163 166 163 161 154 153 152 157 156 157 153 153 152 153 153 148 143 149 148
179 171 157 155 157 155 152 154 159 160 157 155 154 153 152 154 154 148 144 153 153 148
165 156 152 155 155 155 155 160 161 158 156 156 155 157 157 153 157 156 159 158 154 145
153 155 157 159 158 156 155 157 158 156 155 154 155 160 156 154 159 158 159 156 151 147
160 159 158 157 156 157 156 154 156 156 154 156 157 158 157 154 155 150 150 144 143 143
162 160 158 156 155 154 154 154 154 152 152 154 156 161 163 156 151 151 146 145 144 143
161 159 155 153 153 154 153 154 152 154 152 152 158 170 161 152 152 155 152 151 145 149
161 156 156 153 153 155 155 154 154 152 151 153 166 170 157 151 155 156 163 165 161 149
160 156 155 155 156 155 155 155 151 150 150 155 159 162 162 166 154 151 155 157 157 151
164 158 158 159 158 158 153 150 151 154 152 156 153 164 169 143 146 152 154 160 153 143
167 163 162 160 158 155 151 149 152 149 152 153 158 166 155 150 156 155 159 161 163 159
168 168 162 155 154 150 150 149 151 139 150 156 166 164 158 155 164 163 156 159 168 184